Date String (YYYY-MM-DD hh:mm:ss) UTC,Instrument flags,absolute air pressure of the measurement (hPa),sample flow rate (lpm),inlet stack bypass flow (lpm),air temperature of the measurement (°C),ambient temperature measured by the external sensor (°C),aerosol sample conditioner tube jacket temperature (°C),OPC LED temperature (°C),internal box temperature (°C),relative humidity of the measurement (%),span deviation,mass concentration of particles derived from Lorenz-Mie calculation of OPC scattering (μg/m³),mass concentration of particles derived from Lorenz-Mie calculation of OPC scattering (μg/m³),mass concentration of particles derived from Lorenz-Mie calculation of OPC scattering (μg/m³)
DateTimeUTC,F1_M11,P_M11,Q1_M11,Q2_M11,T1_M11,T2_M11,T3_M11,T4_M11,T5_M11,U1_M11,ZSPAN_M11,X0_M11,X2_M11,X1_M11
2024-01-05 17:00:00,SystemResetWarning,0823.8,5.01,000.00,019.2,018.7,000.0,027.4,020.6,16.1,0000.0,0007.13,0004.13,0003.81
2024-01-05 17:01:00,SystemResetWarning,0823.8,5.00,000.00,019.2,018.7,000.0,027.5,020.6,16.1,0000.0,0007.03,0004.11,0003.79
2024-01-05 17:02:00,SystemResetWarning,0823.8,5.00,000.00,019.2,018.7,000.0,027.5,020.6,16.1,0000.0,0006.97,0004.10,0003.76
2024-01-05 17:03:00,SystemResetWarning,0823.8,5.00,000.00,019.2,018.7,000.0,027.5,020.6,16.1,0000.0,0006.92,0004.07,0003.74
2024-01-05 17:04:00,SystemResetWarning,0823.8,5.00,000.00,019.3,018.8,000.0,027.5,020.7,16.2,0000.0,0006.72,0004.02,0003.70
2024-01-05 17:05:00,SystemResetWarning,0823.8,5.00,000.00,019.3,018.8,000.0,027.5,020.7,16.2,0000.0,0006.72,0003.98,0003.67
2024-01-05 17:06:00,SystemResetWarning,0823.8,5.00,000.00,019.3,018.8,000.0,027.5,020.7,16.1,0000.0,0006.77,0003.94,0003.63
2024-01-05 17:07:00,SystemResetWarning,0823.8,5.00,000.00,019.3,018.8,000.0,027.5,020.7,16.1,0000.0,0007.03,0003.90,0003.61
2024-01-05 17:08:00,SystemResetWarning,0823.8,5.00,000.00,019.3,018.8,000.0,027.5,020.7,16.1,0000.0,0006.92,0003.86,0003.57
2024-01-05 17:09:00,SystemResetWarning,0823.8,5.00,000.00,019.3,018.8,000.0,027.5,020.6,16.1,0000.0,0006.77,0003.81,0003.54
2024-01-05 17:10:00,SystemResetWarning,0823.8,5.01,000.00,019.3,018.8,000.0,027.5,020.6,16.0,0000.0,0006.34,0003.76,0003.51
2024-01-05 17:11:00,SystemResetWarning,0823.8,5.00,000.00,019.3,018.8,000.0,027.6,020.7,16.0,0000.0,0005.97,0003.70,0003.47
2024-01-05 17:12:00,SystemResetWarning,0823.8,5.00,000.00,019.3,018.8,000.0,027.6,020.7,16.0,0000.0,0005.74,0003.65,0003.44
2024-01-05 17:13:00,SystemResetWarning,0823.8,5.00,000.00,019.4,018.8,000.0,027.6,020.8,16.0,0000.0,0005.62,0003.62,0003.42
2024-01-05 17:14:00,SystemResetWarning,0823.8,5.00,000.00,019.4,018.9,000.0,027.6,020.7,16.0,0000.0,0005.52,0003.60,0003.41
2024-01-05 17:15:00,SystemResetWarning,0823.8,5.00,000.00,019.4,018.9,000.0,027.6,020.7,16.0,0000.0,0005.66,0003.59,0003.39
2024-01-05 17:16:00,SystemResetWarning,0823.8,5.00,000.00,019.4,018.9,000.0,027.6,020.8,16.0,0000.0,0005.83,0003.58,0003.37
2024-01-05 17:17:00,SystemResetWarning,0823.8,5.00,000.00,019.4,018.9,000.0,027.6,020.8,16.0,0000.0,0005.90,0003.58,0003.36
2024-01-05 17:18:00,SystemResetWarning,0823.8,5.00,000.00,019.4,018.9,000.0,027.6,020.8,16.0,0000.0,0005.30,0003.56,0003.34
2024-01-05 17:19:00,SystemResetWarning,0823.8,4.99,000.00,019.4,018.9,000.0,027.7,020.8,15.9,0000.0,0005.22,0003.52,0003.31
2024-01-05 17:20:00,SystemResetWarning,0823.7,5.00,000.00,019.4,018.9,000.0,027.7,020.8,15.9,0000.0,0005.34,0003.49,0003.26
2024-01-05 17:21:00,SystemResetWarning,0823.7,5.00,000.00,019.4,018.9,000.0,027.7,020.8,15.8,0000.0,0005.38,0003.47,0003.22
2024-01-05 17:22:00,SystemResetWarning,0823.7,5.00,000.00,019.5,019.0,000.0,027.7,020.9,15.9,0000.0,0005.41,0003.46,0003.20
2024-01-05 17:23:00,SystemResetWarning,0823.7,5.01,000.00,019.5,019.0,000.0,027.7,020.9,15.9,0000.0,0005.56,0003.45,0003.16
2024-01-05 17:24:00,SystemResetWarning,0823.7,5.01,000.00,019.5,019.0,000.0,027.7,020.9,15.9,0000.0,0005.49,0003.41,0003.12
2024-01-05 17:25:00,SystemResetWarning,0823.7,5.00,000.00,019.5,019.0,000.0,027.7,020.9,15.9,0000.0,0005.47,0003.39,0003.10
2024-01-05 17:26:00,SystemResetWarning,0823.7,5.00,000.00,019.5,019.0,000.0,027.7,020.9,15.9,0000.0,0005.97,0003.39,0003.08
2024-01-05 17:27:00,SystemResetWarning,0823.7,5.00,000.00,019.5,019.1,000.0,027.8,020.9,15.9,0000.0,0005.68,0003.39,0003.03
2024-01-05 17:28:00,SystemResetWarning,0823.7,4.99,000.00,019.5,019.1,000.0,027.8,020.9,15.9,0000.0,0005.71,0003.39,0003.00
2024-01-05 17:29:00,SystemResetWarning,0823.7,4.99,000.00,019.6,019.1,000.0,027.8,020.9,15.9,0000.0,0005.62,0003.35,0002.95
2024-01-05 17:30:00,SystemResetWarning,0823.6,4.99,000.00,019.6,019.1,000.0,027.8,021.0,15.9,0000.0,0005.62,0003.35,0002.94
2024-01-05 17:31:00,SystemResetWarning,0823.6,5.01,000.00,019.6,019.1,000.0,027.8,021.0,15.9,0000.0,0005.60,0003.35,0002.97
2024-01-05 17:32:00,SystemResetWarning,0823.6,5.01,000.00,019.6,019.1,000.0,027.8,021.0,15.9,0000.0,0005.76,0003.41,0003.03
2024-01-05 17:33:00,SystemResetWarning,0823.6,5.01,000.00,019.6,019.1,000.0,027.8,021.0,15.9,0000.0,0006.06,0003.47,0003.08
2024-01-05 17:34:00,SystemResetWarning,0823.6,5.00,000.00,019.6,019.1,000.0,027.8,021.1,15.8,0000.0,0006.12,0003.47,0003.11
2024-01-05 17:35:00,SystemResetWarning,0823.6,5.00,000.00,019.6,019.2,000.0,027.9,021.1,15.7,0000.0,0006.20,0003.50,0003.14
2024-01-05 17:36:00,SystemResetWarning,0823.5,5.00,000.00,019.7,019.2,000.0,027.9,021.1,15.7,0000.0,0006.31,0003.54,0003.17
2024-01-05 17:37:00,SystemResetWarning,0823.4,5.00,000.00,019.7,019.2,000.0,027.9,021.1,15.6,0000.0,0005.82,0003.56,0003.19
2024-01-05 17:38:00,SystemResetWarning,0823.5,5.00,000.00,019.7,019.2,000.0,027.9,021.1,15.5,0000.0,0006.24,0003.56,0003.23
2024-01-05 17:39:00,SystemResetWarning,0823.5,5.00,000.00,019.7,019.2,000.0,027.9,021.1,15.4,0000.0,0006.18,0003.55,0003.25
2024-01-05 17:40:00,SystemResetWarning,0823.5,5.00,000.00,019.7,019.2,000.0,027.9,021.1,15.3,0000.0,0006.27,0003.60,0003.30
2024-01-05 17:41:00,SystemResetWarning,0823.5,4.99,000.00,019.7,019.3,000.0,027.9,021.1,15.2,0000.0,0007.08,0003.68,0003.36
2024-01-05 17:42:00,SystemResetWarning,0823.4,5.00,000.00,019.7,019.3,000.0,028.0,021.1,15.1,0000.0,0007.21,0003.72,0003.40
2024-01-05 17:43:00,SystemResetWarning,0823.4,5.00,000.00,019.8,019.3,000.0,028.0,021.1,15.1,0000.0,0007.20,0003.75,0003.44
2024-01-05 17:44:00,SystemResetWarning,0823.4,5.00,000.00,019.8,019.3,000.0,028.0,021.2,15.0,0000.0,0007.81,0003.76,0003.49
2024-01-05 17:45:00,SystemResetWarning,0823.4,5.00,000.00,019.8,019.3,000.0,028.0,021.1,14.9,0000.0,0007.83,0003.80,0003.54
2024-01-05 17:46:00,SystemResetWarning,0823.4,5.01,000.00,019.8,019.3,000.0,028.0,021.1,14.9,0000.0,0007.91,0003.84,0003.59
2024-01-05 17:47:00,SystemResetWarning,0823.4,5.01,000.00,019.8,019.3,000.0,028.0,021.1,14.8,0000.0,0008.00,0003.88,0003.63
2024-01-05 17:48:00,SystemResetWarning,0823.4,5.00,000.00,019.8,019.3,000.0,028.0,021.1,14.7,0000.0,0008.07,0003.93,0003.67
2024-01-05 17:49:00,SystemResetWarning,0823.4,5.00,000.00,019.8,019.3,000.0,028.0,021.1,14.8,0000.0,0007.90,0003.99,0003.70
2024-01-05 17:50:00,SystemResetWarning,0823.3,4.99,000.00,019.8,019.3,000.0,028.0,021.1,14.8,0000.0,0008.21,0004.05,0003.73
2024-01-05 17:51:00,SystemResetWarning,0823.3,5.00,000.00,019.8,019.3,000.0,028.0,021.1,14.9,0000.0,0008.46,0004.07,0003.73
2024-01-05 17:52:00,SystemResetWarning,0823.3,4.99,000.00,019.8,019.3,000.0,028.1,021.1,14.9,0000.0,0008.17,0004.05,0003.74
2024-01-05 17:53:00,SystemResetWarning,0823.3,5.00,000.00,019.8,019.3,000.0,028.1,021.1,15.0,0000.0,0008.08,0004.07,0003.74
2024-01-05 17:54:00,SystemResetWarning,0823.3,5.00,000.00,019.8,019.3,000.0,028.1,021.1,15.0,0000.0,0008.09,0004.08,0003.73
2024-01-05 17:55:00,SystemResetWarning,0823.3,5.00,000.00,019.8,019.3,000.0,028.1,021.2,15.0,0000.0,0007.46,0004.06,0003.70
2024-01-05 17:56:00,SystemResetWarning,0823.2,5.01,000.00,019.8,019.3,000.0,028.1,021.2,15.0,0000.0,0007.20,0004.04,0003.68
2024-01-05 17:57:00,SystemResetWarning,0823.3,5.00,000.00,019.8,019.3,000.0,028.1,021.2,15.1,0000.0,0007.31,0004.04,0003.67
2024-01-05 17:58:00,SystemResetWarning,0823.2,5.00,000.00,019.8,019.3,000.0,028.1,021.2,15.2,0000.0,0007.43,0003.99,0003.63
2024-01-05 17:59:00,SystemResetWarning,0823.1,5.00,000.00,019.8,019.3,000.0,028.1,021.2,15.3,0000.0,0007.61,0003.95,0003.60
